Find Starlink 3673

NORAD ID: 52093 Int'l Des: 2022-029 Owner: SPXS Country: US Constellation: starlink operational
LEOCIRCULAR

当前视图

正在加载3D地球...

About Starlink 3673

Starlink 3673 (NORAD 52093) is a starlink constellation satellite (v1.5) launched Mar 19, 2022 by SPXS of US. It operates in LEO, CIRCULAR orbit with a mass of 297.00 kg.

即将过境

Passes for default location (London). Set your location on the main map for personalized predictions.

高度历史

Loading altitude history...

两行轨道根数

1 52093U 22029F 26236.88433542 .00001456 00000-0 54225-4 0 9998
2 52093 53.1619 41.9326 0001165 91.5224 268.5912 15.34394515246215
Epoch: Aug 24, 2026 • Age: 18 hours

当前状态

高度 478.9 km
远地点 / 近地点 N/A
速度 7.63 km/s
星下点 -45.65°S, 139.12°E
发射日期 Mar 19, 2022
运行时间 4.4 years
类型 internet

技术详情

分类 Payload
质量 297.00 kg
干质量 275.00 kg
总质量 297.00 kg
长度 0.20 m
直径 2.80 m
跨度 9.00 m
形状 Box + pan
制造商 SPXS
平台类型 Starlink
阶段状态 In Orbit
所有者/国家 SPXS/US

Most Searched